ICEYE-X43

导读 | 豆包AI

ICEYE-X43是芬兰于2024年8月16日发射合成孔径雷达卫星,属于ICEYE商业地球观测星座。卫星重85公斤,运行在倾角97.7°的太阳同步轨道,搭载X波段有源相控阵雷达,具备多种成像模式,最高分辨率可达0.5米,支持灾害监测、海事监管等多种应用,将助力提升星座重访能力,为全球用户提供高频次遥感数据服务。

基本信息
目录编号:
60539
目录名称:
ICEYE-X43
国际标识:
2024-149BZ
轨道中心:
EARTH
卫星名称:
ICEYE-X43
卫星全名:
ICEYE-X43
卫星状态:
在轨 (已飞行596 天)
发射日期:
2024-08-16 UTC
国别 :
巴西 (BR)
星等 :
--
轨道信息
数据来源 国际轨道数据
星历时间: 2026-04-04T02:24:47+0800
7小时前
查看轨道信息
半长轴: 6946.388km
偏心率: 0.0002407
轨道倾角: 97.683°
近地点辐角 29.450°
升交点赤经 171.741°
平近点角 330.686°
近地点: 566.579km
远地点: 569.923km
周期: 96.028分钟
每日圈数: 14.995615
详细信息
使用方式:
暂无
2D轨道图
3D轨道图
轨道高度分析图
轨道倾角分析图
轨道综合分析图
查看轨道综合分析图